User: anonymous   Login
Location: Unspecified
(0.0000°N, 0.0000°E)
Time: 14:23:30
(UTC+00:00)
Language:

PLEIADES 1B - Orbit

View from above orbital plane
View from above orbital plane
View from above satellite
View from above satellite

Ground track
Ground track

The orbit data is extracted from the following two-line orbital elements,

1 39019U 12068A   15118.14233822  .00000537  00000-0  12531-3 0  9990
2 39019 098.2006 193.4027 0001243 095.6605 264.4745 14.58531514127869
Epoch (UTC): 28 April 2015 03:24:58
Eccentricity: 0.0001243
inclination: 98.2006°
perigee height: 697 km
apogee height: 699 km
right ascension of ascending node: 193.4027°
argument of perigee: 95.6605°
revolutions per day: 14.58531514
mean anomaly at epoch: 264.4745°
orbit number at epoch: 12786

The dashed part of the orbit path shows where the satellite is in the earth's shadow,  

DLR